Вернуться в каталог

COSMOS 1940

АктивенВоенныеGEO
NORAD 19073·PAYLOAD·🇷🇺 Russia

Запущен Apr 26, 1988 с Baikonur Cosmodrome

Loading…

TLE

СвежийSource: Space-Track

Эпоха: Sep 14, 2026, 04:32 UTC

1 19073U 88034A   26257.18934340 -.00000223  00000-0  00000-0 0  9995
2 19073  10.8487 325.9943 0022150 295.8985  64.1193  1.00673366122248

Отслеживайте COSMOS 1940 в реальном времени с AllMySat

Download on the App Store